Time,TemperatureF,DewpointF,PressureIn,WindDirection,WindDirectionDegrees,WindSpeedMPH,WindSpeedGustMPH,Humidity,HourlyPrecipIn,Conditions,Clouds,dailyrainin,SoftwareType,DateUTC
2013-10-28 00:09:00,41.4,39.5,29.96,ESE,112,0.0,-999.0,93,-99.99,,,0.00,Acu-Link.com,2013-10-28 04:09:00,
2013-10-28 00:24:00,41.4,39.8,29.96,North,0,0.0,-999.0,94,-99.99,,,0.00,Acu-Link.com,2013-10-28 04:24:00,
2013-10-28 00:39:00,41.7,40.1,29.96,North,0,0.0,-999.0,94,-99.99,,,0.00,Acu-Link.com,2013-10-28 04:39:00,
2013-10-28 00:55:00,42.4,40.8,29.96,North,0,0.0,-999.0,94,-99.99,,,0.00,Acu-Link.com,2013-10-28 04:55:00,
2013-10-28 01:10:00,42.4,40.5,29.96,North,0,0.0,-999.0,93,-99.99,,,0.00,Acu-Link.com,2013-10-28 05:10:00,
2013-10-28 01:25:00,42.1,40.5,29.96,North,0,0.0,-999.0,94,-99.99,,,0.00,Acu-Link.com,2013-10-28 05:25:00,
2013-10-28 01:40:00,41.7,39.8,29.96,North,0,0.0,-999.0,93,-99.99,,,0.00,Acu-Link.com,2013-10-28 05:40:00,
2013-10-28 01:55:00,41.5,39.9,29.96,North,0,0.0,-999.0,94,-99.99,,,0.00,Acu-Link.com,2013-10-28 05:55:00,
2013-10-28 02:10:00,41.9,40.6,29.96,North,0,0.0,-999.0,95,-99.99,,,0.00,Acu-Link.com,2013-10-28 06:10:00,
2013-10-28 02:25:00,42.4,41.1,29.96,North,0,0.0,-999.0,95,-99.99,,,0.00,Acu-Link.com,2013-10-28 06:25:00,
2013-10-28 02:41:00,43.9,42.6,29.96,ESE,112,0.0,-999.0,95,-99.99,,,0.00,Acu-Link.com,2013-10-28 06:41:00,
2013-10-28 02:56:00,44.6,43.3,29.96,North,0,0.0,-999.0,95,-99.99,,,0.00,Acu-Link.com,2013-10-28 06:56:00,
2013-10-28 03:11:00,45.5,44.2,29.97,North,0,0.0,-999.0,95,-99.99,,,0.00,Acu-Link.com,2013-10-28 07:11:00,
2013-10-28 03:26:00,46.2,44.6,29.97,North,0,0.0,-999.0,94,-99.99,,,0.00,Acu-Link.com,2013-10-28 07:26:00,
2013-10-28 03:41:00,46.6,45.0,29.97,ESE,112,0.0,-999.0,94,-99.99,,,0.00,Acu-Link.com,2013-10-28 07:41:00,
2013-10-28 03:56:00,47.1,45.2,29.98,East,90,0.0,-999.0,93,-99.99,,,0.00,Acu-Link.com,2013-10-28 07:56:00,
2013-10-28 04:12:00,47.5,45.3,29.98,NNE,22,0.0,-999.0,92,-99.99,,,0.00,Acu-Link.com,2013-10-28 08:12:00,
2013-10-28 04:27:00,48.0,45.5,29.98,North,0,0.0,-999.0,91,-99.99,,,0.00,Acu-Link.com,2013-10-28 08:27:00,
2013-10-28 04:42:00,48.4,45.9,29.98,NE,45,0.0,-999.0,91,-99.99,,,0.00,Acu-Link.com,2013-10-28 08:42:00,
2013-10-28 04:57:00,48.6,46.4,29.98,ENE,67,0.0,-999.0,92,-99.99,,,0.00,Acu-Link.com,2013-10-28 08:57:00,
2013-10-28 05:12:00,48.6,46.4,29.98,North,0,0.0,-999.0,92,-99.99,,,0.00,Acu-Link.com,2013-10-28 09:12:00,
2013-10-28 05:27:00,48.7,46.8,29.99,North,0,0.0,-999.0,93,-99.99,,,0.00,Acu-Link.com,2013-10-28 09:27:00,
2013-10-28 05:43:00,49.1,46.9,29.99,SE,135,0.0,-999.0,92,-99.99,,,0.00,Acu-Link.com,2013-10-28 09:43:00,
2013-10-28 05:58:00,49.3,47.1,29.99,NE,45,0.0,-999.0,92,-99.99,,,0.00,Acu-Link.com,2013-10-28 09:58:00,
2013-10-28 06:13:00,49.3,47.4,30.00,NE,45,0.0,-999.0,93,-99.99,,,0.00,Acu-Link.com,2013-10-28 10:13:00,
2013-10-28 06:28:00,49.5,47.6,30.01,ESE,112,0.0,-999.0,93,-99.99,,,0.00,Acu-Link.com,2013-10-28 10:28:00,
2013-10-28 06:43:00,49.6,47.4,30.01,ESE,112,0.0,-999.0,92,-99.99,,,0.00,Acu-Link.com,2013-10-28 10:43:00,
2013-10-28 06:58:00,49.6,47.7,30.02,ESE,112,0.0,-999.0,93,-99.99,,,0.00,Acu-Link.com,2013-10-28 10:58:00,
2013-10-28 07:13:00,49.6,47.7,30.02,ESE,112,0.0,-999.0,93,-99.99,,,0.00,Acu-Link.com,2013-10-28 11:13:00,
2013-10-28 07:29:00,49.6,46.5,30.02,SE,135,2.2,-999.0,89,-99.99,,,0.00,Acu-Link.com,2013-10-28 11:29:00,
2013-10-28 07:44:00,49.3,46.2,30.02,ESE,112,0.0,-999.0,89,-99.99,,,0.00,Acu-Link.com,2013-10-28 11:44:00,
2013-10-28 07:59:00,49.3,46.5,30.02,SSE,157,0.0,-999.0,90,-99.99,,,0.00,Acu-Link.com,2013-10-28 11:59:00,
2013-10-28 08:14:00,49.3,46.5,30.03,SSE,157,0.0,-999.0,90,-99.99,,,0.00,Acu-Link.com,2013-10-28 12:14:00,
2013-10-28 08:29:00,49.5,46.7,30.03,ESE,112,0.0,-999.0,90,-99.99,,,0.00,Acu-Link.com,2013-10-28 12:29:00,
2013-10-28 08:45:00,50.0,46.9,30.04,ENE,67,0.0,-999.0,89,-99.99,,,0.00,Acu-Link.com,2013-10-28 12:45:00,
2013-10-28 09:00:00,50.9,47.8,30.04,West,270,0.0,-999.0,89,-99.99,,,0.00,Acu-Link.com,2013-10-28 13:00:00,
2013-10-28 09:15:00,51.8,48.1,30.05,East,90,1.1,-999.0,87,-99.99,,,0.00,Acu-Link.com,2013-10-28 13:15:00,
2013-10-28 09:30:00,52.2,48.4,30.06,South,180,0.0,-999.0,87,-99.99,,,0.00,Acu-Link.com,2013-10-28 13:30:00,
2013-10-28 09:45:00,52.5,47.8,30.06,SSE,157,0.0,-999.0,84,-99.99,,,0.00,Acu-Link.com,2013-10-28 13:45:00,
2013-10-28 10:01:00,52.9,48.2,30.07,ESE,112,1.1,-999.0,84,-99.99,,,0.00,Acu-Link.com,2013-10-28 14:01:00,
2013-10-28 10:16:00,53.1,48.7,30.08,East,90,1.1,-999.0,85,-99.99,,,0.00,Acu-Link.com,2013-10-28 14:16:00,
2013-10-28 10:31:00,53.8,48.8,30.07,North,0,0.0,-999.0,83,-99.99,,,0.00,Acu-Link.com,2013-10-28 14:31:00,
2013-10-28 10:46:00,54.3,48.9,30.08,SSW,202,0.0,-999.0,82,-99.99,,,0.00,Acu-Link.com,2013-10-28 14:46:00,
2013-10-28 11:02:00,54.7,48.7,30.08,NE,45,1.1,-999.0,80,-99.99,,,0.00,Acu-Link.com,2013-10-28 15:02:00,
2013-10-28 11:17:00,55.2,49.5,30.08,ESE,112,0.0,-999.0,81,-99.99,,,0.00,Acu-Link.com,2013-10-28 15:17:00,
2013-10-28 11:32:00,55.4,48.7,30.08,South,180,0.0,-999.0,78,-99.99,,,0.00,Acu-Link.com,2013-10-28 15:32:00,
2013-10-28 11:47:00,55.4,48.3,30.08,ESE,112,3.7,-999.0,77,-99.99,,,0.00,Acu-Link.com,2013-10-28 15:47:00,
2013-10-28 12:02:00,55.8,48.7,30.09,NW,315,1.1,-999.0,77,-99.99,,,0.00,Acu-Link.com,2013-10-28 16:02:00,
2013-10-28 12:18:00,55.9,49.8,30.09,SE,135,2.2,-999.0,80,-99.99,,,0.00,Acu-Link.com,2013-10-28 16:18:00,
2013-10-28 12:33:00,56.1,50.0,30.09,SSE,157,1.7,-999.0,80,-99.99,,,0.00,Acu-Link.com,2013-10-28 16:33:00,
2013-10-28 12:48:00,55.6,50.5,30.08,South,180,1.7,-999.0,83,-99.99,,,0.00,Acu-Link.com,2013-10-28 16:48:00,
2013-10-28 13:03:00,56.3,51.2,30.08,SSE,157,1.1,-999.0,83,-99.99,,,0.00,Acu-Link.com,2013-10-28 17:03:00,
2013-10-28 13:18:00,55.6,50.5,30.08,SSE,157,2.2,-999.0,83,-99.99,,,0.00,Acu-Link.com,2013-10-28 17:18:00,
2013-10-28 13:34:00,56.5,51.4,30.07,SE,135,2.7,-999.0,83,-99.99,,,0.00,Acu-Link.com,2013-10-28 17:34:00,
2013-10-28 13:49:00,56.8,51.4,30.06,SE,135,2.2,-999.0,82,-99.99,,,0.00,Acu-Link.com,2013-10-28 17:49:00,
2013-10-28 14:04:00,57.4,51.9,30.06,SSE,157,3.2,-999.0,82,-99.99,,,0.00,Acu-Link.com,2013-10-28 18:04:00,
2013-10-28 14:19:00,57.7,52.2,30.05,ESE,112,5.3,-999.0,82,-99.99,,,0.00,Acu-Link.com,2013-10-28 18:19:00,
2013-10-28 14:34:00,59.4,53.2,30.05,NW,315,2.2,-999.0,80,-99.99,,,0.00,Acu-Link.com,2013-10-28 18:34:00,
2013-10-28 14:50:00,61.3,53.7,30.05,East,90,1.1,-999.0,76,-99.99,,,0.00,Acu-Link.com,2013-10-28 18:50:00,
2013-10-28 15:05:00,63.9,55.1,30.05,South,180,3.7,-999.0,73,-99.99,,,0.00,Acu-Link.com,2013-10-28 19:05:00,
2013-10-28 15:20:00,61.5,54.2,30.05,SSE,157,3.2,-999.0,77,-99.99,,,0.00,Acu-Link.com,2013-10-28 19:20:00,
2013-10-28 15:35:00,60.4,53.9,30.04,South,180,1.7,-999.0,79,-99.99,,,0.00,Acu-Link.com,2013-10-28 19:35:00,
2013-10-28 15:51:00,61.7,54.4,30.05,ESE,112,0.0,-999.0,77,-99.99,,,0.00,Acu-Link.com,2013-10-28 19:51:00,
2013-10-28 16:06:00,61.5,54.2,30.05,SE,135,0.0,-999.0,77,-99.99,,,0.00,Acu-Link.com,2013-10-28 20:06:00,
2013-10-28 16:21:00,60.3,54.4,30.05,ESE,112,2.2,-999.0,81,-99.99,,,0.00,Acu-Link.com,2013-10-28 20:21:00,
2013-10-28 16:36:00,60.4,54.5,30.05,SE,135,2.7,-999.0,81,-99.99,,,0.00,Acu-Link.com,2013-10-28 20:36:00,
2013-10-28 16:51:00,61.3,55.1,30.06,SSW,202,1.7,-999.0,80,-99.99,,,0.00,Acu-Link.com,2013-10-28 20:51:00,
2013-10-28 17:07:00,61.7,55.1,30.06,NE,45,2.2,-999.0,79,-99.99,,,0.00,Acu-Link.com,2013-10-28 21:07:00,
2013-10-28 17:22:00,61.3,55.1,30.06,WNW,292,0.0,-999.0,80,-99.99,,,0.00,Acu-Link.com,2013-10-28 21:22:00,
2013-10-28 17:37:00,61.5,55.3,30.06,ESE,112,0.0,-999.0,80,-99.99,,,0.00,Acu-Link.com,2013-10-28 21:37:00,
2013-10-28 17:52:00,60.8,55.3,30.06,SSE,157,0.0,-999.0,82,-99.99,,,0.00,Acu-Link.com,2013-10-28 21:52:00,
2013-10-28 18:07:00,60.6,54.7,30.07,SSE,157,0.0,-999.0,81,-99.99,,,0.00,Acu-Link.com,2013-10-28 22:07:00,
2013-10-28 18:23:00,60.4,55.2,30.07,SE,135,0.0,-999.0,83,-99.99,,,0.00,Acu-Link.com,2013-10-28 22:23:00,
2013-10-28 18:38:00,59.5,54.7,30.08,East,90,0.0,-999.0,84,-99.99,,,0.00,Acu-Link.com,2013-10-28 22:38:00,
2013-10-28 18:53:00,58.5,54.3,30.08,East,90,0.0,-999.0,86,-99.99,,,0.00,Acu-Link.com,2013-10-28 22:53:00,
2013-10-28 19:08:00,57.9,54.4,30.08,NE,45,0.0,-999.0,88,-99.99,,,0.00,Acu-Link.com,2013-10-28 23:08:00,
2013-10-28 19:23:00,57.0,53.8,30.09,ENE,67,0.0,-999.0,89,-99.99,,,0.00,Acu-Link.com,2013-10-28 23:23:00,
2013-10-28 19:39:00,56.7,53.5,30.09,NNW,337,0.0,-999.0,89,-99.99,,,0.00,Acu-Link.com,2013-10-28 23:39:00,
2013-10-28 19:54:00,56.1,53.5,30.09,NE,45,0.0,-999.0,91,-99.99,,,0.00,Acu-Link.com,2013-10-28 23:54:00,
2013-10-28 20:09:00,55.0,52.7,30.11,NW,315,0.0,-999.0,92,-99.99,,,0.00,Acu-Link.com,2013-10-29 00:09:00,
2013-10-28 20:24:00,54.1,52.4,30.11,NNW,337,0.0,-999.0,94,-99.99,,,0.00,Acu-Link.com,2013-10-29 00:24:00,
2013-10-28 20:39:00,54.1,52.7,30.11,South,180,0.0,-999.0,95,-99.99,,,0.00,Acu-Link.com,2013-10-29 00:39:00,
2013-10-28 20:55:00,54.1,52.7,30.11,WNW,292,0.0,-999.0,95,-99.99,,,0.00,Acu-Link.com,2013-10-29 00:55:00,
2013-10-28 21:10:00,54.3,52.9,30.11,SSE,157,0.0,-999.0,95,-99.99,,,0.00,Acu-Link.com,2013-10-29 01:10:00,
2013-10-28 21:25:00,54.5,53.1,30.11,ENE,67,0.0,-999.0,95,-99.99,,,0.00,Acu-Link.com,2013-10-29 01:25:00,
2013-10-28 21:40:00,54.0,52.6,30.12,West,270,0.0,-999.0,95,-99.99,,,0.00,Acu-Link.com,2013-10-29 01:40:00,
2013-10-28 21:55:00,53.1,52.0,30.12,ESE,112,0.0,-999.0,96,-99.99,,,0.00,Acu-Link.com,2013-10-29 01:55:00,
2013-10-28 22:10:00,51.8,51.0,30.12,NNW,337,0.0,-999.0,97,-99.99,,,0.00,Acu-Link.com,2013-10-29 02:10:00,
2013-10-28 22:26:00,50.9,50.1,30.13,NE,45,0.0,-999.0,97,-99.99,,,0.00,Acu-Link.com,2013-10-29 02:26:00,
2013-10-28 22:41:00,50.0,49.7,30.14,NE,45,0.0,-999.0,99,-99.99,,,0.00,Acu-Link.com,2013-10-29 02:41:00,
2013-10-28 22:56:00,49.1,48.8,30.13,SE,135,0.0,-999.0,99,-99.99,,,0.00,Acu-Link.com,2013-10-29 02:56:00,
2013-10-28 23:43:00,48.4,47.9,30.13,East,90,0.0,-999.0,98,-99.99,,,0.00,Acu-Link.com,2013-10-29 03:43:00,
2013-10-28 23:58:00,46.4,46.1,30.14,East,90,0.0,-999.0,99,-99.99,,,0.00,Acu-Link.com,2013-10-29 03:58:00,